Hourly Weather Rusovschina

Today, 14 April, Wednesday

Time Temperature Precipitation Wind Pressure Humidity
00:00 +5°C° 0 mm 4 mps 745 mmHg 87%
01:00 +4°C° 0 mm 4 mps 744 mmHg 87%
02:00 +4°C° 0 mm 4 mps 744 mmHg 86%
03:00 +4°C° 0 mm 4 mps 744 mmHg 86%
04:00 +4°C° 0 mm 4 mps 744 mmHg 86%
05:00 +5°C° 0 mm 4 mps 744 mmHg 85%
06:00 +5°C° 0.1 mm 4 mps 743 mmHg 86%
07:00 +5°C° 0.1 mm 4 mps 743 mmHg 88%
08:00 +5°C° 0.1 mm 4 mps 743 mmHg 89%
09:00 +5°C° 0.4 mm 4 mps 743 mmHg 90%
10:00 +5°C° 0.4 mm 4 mps 743 mmHg 91%
11:00 +5°C° 0.4 mm 4 mps 743 mmHg 92%
12:00 +6°C° 0.3 mm 4 mps 743 mmHg 92%
13:00 +6°C° 0.3 mm 4 mps 743 mmHg 92%
14:00 +6°C° 0.3 mm 4 mps 742 mmHg 92%
15:00 +6°C° 0.5 mm 4 mps 742 mmHg 93%
16:00 +6°C° 0.5 mm 4 mps 742 mmHg 94%
17:00 +7°C° 0.5 mm 3 mps 742 mmHg 95%
18:00 +7°C° 0.3 mm 3 mps 742 mmHg 96%
19:00 +7°C° 0.3 mm 3 mps 742 mmHg 96%
20:00 +7°C° 0.3 mm 3 mps 742 mmHg 97%
21:00 +7°C° 0.7 mm 3 mps 742 mmHg 97%
22:00 +7°C° 0.7 mm 3 mps 742 mmHg 97%
23:00 +7°C° 0.7 mm 3 mps 742 mmHg 98%

Tomorrow, 15 April, Thursday

Time Temperature Precipitation Wind Pressure Humidity
00:00 +7°C° 0.5 mm 3 mps 742 mmHg 98%
01:00 +7°C° 0.5 mm 2 mps 742 mmHg 98%
02:00 +7°C° 0.5 mm 2 mps 742 mmHg 98%
03:00 +7°C° 0.3 mm 2 mps 742 mmHg 98%
04:00 +7°C° 0.3 mm 2 mps 742 mmHg 98%
05:00 +7°C° 0.3 mm 2 mps 743 mmHg 98%
06:00 +7°C° 0.2 mm 2 mps 743 mmHg 97%
07:00 +7°C° 0.2 mm 2 mps 743 mmHg 97%
08:00 +7°C° 0.2 mm 2 mps 743 mmHg 96%
09:00 +8°C° 0.1 mm 2 mps 743 mmHg 95%
10:00 +8°C° 0.1 mm 2 mps 744 mmHg 93%
11:00 +8°C° 0.1 mm 2 mps 744 mmHg 92%
12:00 +9°C° 0.1 mm 2 mps 744 mmHg 89%
13:00 +9°C° 0.1 mm 3 mps 744 mmHg 87%
14:00 +8°C° 0.1 mm 4 mps 744 mmHg 84%
15:00 +8°C° 0.2 mm 4 mps 743 mmHg 86%
16:00 +7°C° 0.2 mm 4 mps 743 mmHg 88%
17:00 +7°C° 0.2 mm 4 mps 743 mmHg 89%
18:00 +6°C° 0.5 mm 4 mps 743 mmHg 91%
19:00 +5°C° 0.5 mm 4 mps 743 mmHg 93%
20:00 +4°C° 0.5 mm 4 mps 743 mmHg 95%
21:00 +4°C° 0.9 mm 4 mps 743 mmHg 95%
22:00 +4°C° 0.9 mm 4 mps 743 mmHg 95%
23:00 +4°C° 0.9 mm 4 mps 742 mmHg 96%

Day after tomorrow, 16 April, Friday

Time Temperature Precipitation Wind Pressure Humidity
00:00 +5°C° 0.1 mm 4 mps 742 mmHg 96%
01:00 +5°C° 0.1 mm 4 mps 742 mmHg 96%
02:00 +5°C° 0.1 mm 4 mps 741 mmHg 96%
03:00 +6°C° 0.9 mm 4 mps 741 mmHg 96%
04:00 +6°C° 0.9 mm 4 mps 741 mmHg 96%
05:00 +6°C° 0.9 mm 4 mps 741 mmHg 97%
06:00 +6°C° 0.2 mm 4 mps 741 mmHg 95%
07:00 +7°C° 0.2 mm 5 mps 742 mmHg 93%
08:00 +7°C° 0.2 mm 5 mps 742 mmHg 91%
09:00 +8°C° 0 mm 5 mps 742 mmHg 90%
10:00 +8°C° 0 mm 5 mps 742 mmHg 88%
11:00 +8°C° 0 mm 5 mps 743 mmHg 86%
12:00 +10°C° 0.1 mm 4 mps 743 mmHg 84%
13:00 +11°C° 0.1 mm 4 mps 743 mmHg 82%
14:00 +11°C° 0.1 mm 4 mps 743 mmHg 80%
15:00 +12°C° 0.2 mm 4 mps 743 mmHg 77%
16:00 +12°C° 0.2 mm 4 mps 743 mmHg 73%
17:00 +12°C° 0.2 mm 4 mps 743 mmHg 70%
18:00 +11°C° 0.4 mm 4 mps 743 mmHg 76%
19:00 +9°C° 0.4 mm 5 mps 744 mmHg 82%
20:00 +8°C° 0.4 mm 5 mps 744 mmHg 88%
21:00 +7°C° 0.1 mm 4 mps 744 mmHg 90%
22:00 +7°C° 0.1 mm 4 mps 744 mmHg 93%
23:00 +6°C° 0.1 mm 4 mps 745 mmHg 95%

17 April, Saturday

Time Temperature Precipitation Wind Pressure Humidity
00:00 +7°C° 0 mm 3 mps 745 mmHg 96%
01:00 +5°C° 0 mm 3 mps 745 mmHg 96%
02:00 +6°C° 0 mm 2 mps 745 mmHg 97%
03:00 +5°C° 0 mm 2 mps 745 mmHg 97%
04:00 +5°C° 0 mm 2 mps 746 mmHg 96%
05:00 +5°C° 0 mm 2 mps 746 mmHg 96%
06:00 +5°C° 0 mm 3 mps 746 mmHg 93%
07:00 +7°C° 0 mm 3 mps 746 mmHg 91%
08:00 +7°C° 0 mm 4 mps 747 mmHg 88%
09:00 +8°C° 0.1 mm 4 mps 747 mmHg 82%
10:00 +10°C° 0.1 mm 4 mps 747 mmHg 76%
11:00 +10°C° 0.1 mm 5 mps 747 mmHg 69%
12:00 +10°C° 0.1 mm 5 mps 747 mmHg 67%
13:00 +12°C° 0.1 mm 5 mps 748 mmHg 64%
14:00 +12°C° 0.1 mm 5 mps 748 mmHg 61%
15:00 +12°C° 0.1 mm 5 mps 748 mmHg 64%
16:00 +11°C° 0.1 mm 4 mps 748 mmHg 67%
17:00 +11°C° 0.1 mm 4 mps 748 mmHg 69%
18:00 +10°C° 0 mm 3 mps 748 mmHg 74%
19:00 +9°C° 0 mm 3 mps 748 mmHg 78%
20:00 +8°C° 0 mm 2 mps 748 mmHg 82%
21:00 +8°C° 0.1 mm 2 mps 748 mmHg 84%
22:00 +8°C° 0.1 mm 2 mps 748 mmHg 86%
23:00 +8°C° 0.1 mm 3 mps 749 mmHg 88%

18 April, Sunday

Time Temperature Precipitation Wind Pressure Humidity
00:00 +8°C° 0.1 mm 2 mps 748 mmHg 89%
01:00 +8°C° 0.1 mm 2 mps 748 mmHg 90%
02:00 +9°C° 0.1 mm 1 mps 748 mmHg 91%
03:00 +7°C° 0.5 mm 2 mps 748 mmHg 93%
04:00 +7°C° 0.5 mm 2 mps 748 mmHg 94%
05:00 +7°C° 0.5 mm 2 mps 748 mmHg 96%
06:00 +8°C° 0.5 mm 2 mps 748 mmHg 96%
07:00 +8°C° 0.5 mm 2 mps 748 mmHg 95%
08:00 +8°C° 0.5 mm 2 mps 748 mmHg 95%
09:00 +9°C° 0 mm 3 mps 749 mmHg 92%
10:00 +10°C° 0 mm 3 mps 749 mmHg 88%
11:00 +10°C° 0 mm 3 mps 749 mmHg 85%
12:00 +11°C° 0.2 mm 4 mps 749 mmHg 82%
13:00 +12°C° 0.2 mm 4 mps 749 mmHg 78%
14:00 +12°C° 0.2 mm 5 mps 749 mmHg 75%
15:00 +12°C° 0 mm 4 mps 749 mmHg 74%
16:00 +12°C° 0 mm 4 mps 749 mmHg 72%
17:00 +12°C° 0 mm 4 mps 749 mmHg 71%
18:00 +11°C° 0 mm 4 mps 749 mmHg 74%
19:00 +10°C° 0 mm 3 mps 749 mmHg 78%
20:00 +9°C° 0 mm 3 mps 749 mmHg 81%
21:00 +9°C° 0 mm 3 mps 750 mmHg 82%
22:00 +8°C° 0 mm 3 mps 750 mmHg 83%
23:00 +7°C° 0 mm 4 mps 750 mmHg 85%

19 April, Monday

Time Temperature Precipitation Wind Pressure Humidity
00:00 +7°C° 0 mm 4 mps 750 mmHg 85%
01:00 +8°C° 0 mm 3 mps 750 mmHg 86%
02:00 +7°C° 0 mm 3 mps 750 mmHg 87%
03:00 +6°C° 0 mm 4 mps 750 mmHg 86%
04:00 +6°C° 0 mm 4 mps 750 mmHg 86%
05:00 +6°C° 0 mm 5 mps 750 mmHg 85%
06:00 +7°C° 0 mm 5 mps 750 mmHg 83%
07:00 +7°C° 0 mm 5 mps 750 mmHg 82%
08:00 +8°C° 0 mm 5 mps 751 mmHg 80%
09:00 +9°C° 0 mm 6 mps 751 mmHg 75%
10:00 +10°C° 0 mm 6 mps 751 mmHg 69%
11:00 +11°C° 0 mm 7 mps 751 mmHg 64%
12:00 +13°C° 0 mm 6 mps 750 mmHg 61%
13:00 +13°C° 0 mm 6 mps 750 mmHg 59%
14:00 +14°C° 0 mm 6 mps 750 mmHg 57%
15:00 +13°C° 0 mm 6 mps 750 mmHg 60%
16:00 +13°C° 0 mm 5 mps 750 mmHg 63%
17:00 +13°C° 0 mm 5 mps 750 mmHg 66%
18:00 +12°C° 0 mm 5 mps 749 mmHg 70%
19:00 +11°C° 0 mm 4 mps 749 mmHg 74%
20:00 +10°C° 0 mm 4 mps 749 mmHg 78%
21:00 +10°C° 0 mm 4 mps 749 mmHg 77%
22:00 +10°C° 0 mm 4 mps 749 mmHg 76%
23:00 +8°C° 0 mm 4 mps 749 mmHg 76%
Show more